Regional Weather Roundup
Issued by NWS Wakefield, VA

Home | Current Version | Previous Version | Graphics & Text | Print | Product List | Glossary On
Versions: 1 2 3 4 5 6 7 8 9 10 11 12 13 14 15 16 17 18 19 20 21 22 23 24 25 26 27 28
000
ASUS41 KAKQ 242110
RWRAKQ

REGIONAL WEATHER ROUNDUP
NATIONAL WEATHER SERVICE WAKEFIELD VA
500 PM EDT FRI OCT 24 2014

Note: "fair" indicates few or no clouds below 12,000 feet with no
significant weather and/or obstructions to visibility. * = Denotes
station may not report precipitation (e.g., rain,snow,etc.),
thunder or fog.

VAZ042-051-052>054-056-242200-
NORTHERN VIRGINIA

CITY           SKY/WX    TMP DP  RH WIND       PRES   REMARKS
WASH NATIONAL  PTSUNNY   70  35  27 NW9       29.90S
DULLES         PTSUNNY   64  39  39 W9        29.91S
FORT BELVOIR   MOSUNNY   67  40  37 W7        29.91S
QUANTICO       MOSUNNY   69  39  33 NW5       29.92S
FREDERICKSBRG* SUNNY     66  43  43 W5        29.91S
STAFFORD*      SUNNY     65  38  37 CALM      29.95F
WARRENTON      MOSUNNY   68  47  47 CALM      29.91S
CULPEPER*      MOSUNNY   68  39  34 W6        29.93S
MANASSAS*      MOSUNNY   66  37  34 NW10      29.92R
LEESBURG*      MOSUNNY   64  43  45 W7        29.92S
WINCHESTER     PTSUNNY   64  28  25 W10       29.94S
FRONT ROYAL*   PTCLDY    64  32  29 NW6       29.93S
LURAY*         PTCLDY    68  34  28 CALM      29.94S
$$

VAZ048-049-060>072-079>083-242200-
CENTRAL AND SOUTH CENTRAL VIRGINIA...AND NORTH CENTRAL NORTH CAROLINA

CITY           SKY/WX    TMP DP  RH WIND       PRES   REMARKS
RICHMOND       PTSUNNY   69  39  33 NW8       29.93S
CHESTERFIELD*    N/A    N/A N/A N/A MISG        N/A
PETERSBURG*    MOSUNNY   65  44  46 CALM      29.94S
HANOVER        SUNNY     65  40  39 NW6       29.94F
TAPPAHANNOCK*  SUNNY     68  34  28 W10       29.92S
CHARLOTTSVILLE MOSUNNY   69  39  33 CALM      29.93F
ORANGE*        MOSUNNY   70  37  30 SW6       29.94S
LOUISA*        MOSUNNY   70  39  32 W5        29.92S
FARMVILLE*     MOSUNNY   66  45  45 CALM      29.93S
CREWE*         MOCLDY    67  40  36 NW3       29.94S
FORT PICKETT*  MOCLDY    65  45  46 SW3       29.94S
LUNENBURG*     MOCLDY    62  53  73 CALM      29.95S
SOUTH HILL*    PTSUNNY   66  50  55 CALM      30.00S
LAWRENCEVILLE* MOCLDY    65  49  55 CALM      29.94S
ROANOKE RAPIDS MOCLDY    64  45  48 W3        29.95S
RALEIGH        PTSUNNY   68  47  46 SW5       29.96S
$$

VAZ088>098-242200-
SOUTHEAST VIRGINIA

CITY           SKY/WX    TMP DP  RH WIND       PRES   REMARKS
NORFOLK        SUNNY     68  44  42 VRB6      29.91S
VIRGINIA BEACH MOSUNNY   69  47  45 NW10      29.90S
NORFOLK NAVAL  MOSUNNY   69  44  40 NW12      29.92S
WEST POINT*    MOSUNNY   70  37  30 W8        29.93S
NEWPORT NEWS   SUNNY     70  43  37 W12       29.91S
LANGLEY AFB    SUNNY     67  45  45 W9        29.91S
FORT EUSTIS    SUNNY     66  43  43 W13       29.90S
WILLIAMSBURG*  SUNNY     72  46  40 W9        29.93S
HR EXEC AP*    CLEAR     66  46  48 W6        29.94R
FRANKLIN*      SUNNY     70  43  37 W8        29.93S
WAKEFIELD      SUNNY     68  44  42 CALM      29.93S
$$

VAZ020-022-025-037-045-242200-
WEST CENTRAL AND SOUTHWEST VIRGINIA

CITY           SKY/WX    TMP DP  RH WIND       PRES   REMARKS
STAUNTON*      MOSUNNY   67  37  32 E3        29.96F
HOT SPRINGS VA MOSUNNY   56  35  45 W9        30.00S
LYNCHBURG      PTSUNNY   67  39  35 W6        29.96F
DANVILLE       PTSUNNY   65  45  48 SW6       29.97S
SOUTH BOSTON*  NOT AVBL
MARTINSVILLE   PTSUNNY   67  44  42 CALM      30.00S
ROANOKE        PTSUNNY   70  36  28 N7        29.98F
BLACKSBURG     MOSUNNY   63  43  48 W5        30.02F
DUBLIN*        MOSUNNY   64  40  41 N3        30.02F
MARION*        SUNNY     63  35  36 W10G17    30.05S
HILLSVILLE*    MOSUNNY   62  37  39 W8        30.02S
RICHLANDS*     CLEAR     62   7  11 NW6       30.05F
WISE*          SUNNY     59  37  44 N5        30.07F
ABINGDON*      MOSUNNY   64  34  33 CALM      30.05S
$$

MDZ021>025-VAZ099-100-242200-
SOUTHERN MARYLAND AND THE DELMARVA PENINSULA

CITY           SKY/WX    TMP DP  RH WIND       PRES   REMARKS
PATUXENT RIVER PTSUNNY   65  41  41 W13       29.89R
BAY BRIDGE APT   N/A     64  37  36 NW10      29.87S
LEONARDTOWN    MOSUNNY   64  39  39 W10       29.91S
DOVER          MOSUNNY   67  46  47 W13       29.82S
GEORGETOWN     MOSUNNY   67  45  45 W9        29.85R
EASTON         NOT AVBL
CAMBRIDGE      MOSUNNY   66  43  42 W6        29.87S
SALISBURY      MOSUNNY   67  45  45 W10       29.86R
OCEAN CITY     SUNNY     67  46  47 W8        29.85R
WALLOPS ISLAND MOSUNNY   66  46  48 NW13      29.87S
ACCOMACK*      SUNNY     64  46  52 W10       29.89S
$$

NCZ012>017-030>032-242200-
EASTERN NORTH CAROLINA

CITY           SKY/WX    TMP DP  RH WIND       PRES   REMARKS
ELIZABETH CITY SUNNY     69  49  48 W10       29.92R
AHOSKIE*       PTSUNNY   65  47  50 CALM      29.94S
EDENTON*       SUNNY     68  48  48 NW7       29.93S
CURRITUCK*     SUNNY     69  45  42 W7        29.92S
KILL DEVIL HLS SUNNY     64  49  58 W6        29.91S
MANTEO         SUNNY     65  50  58 NW6       29.92S
CAPE HATTERAS  MOSUNNY   62  51  67 NW5       29.93F
TARBORO*       MOCLDY    69  45  41 NW5       29.96S
GOLDSBORO      PTSUNNY   71  50  46 W7        29.94S
WASHINGTON     SUNNY     68  47  46 NW3       29.94F
GREENVILLE     PTSUNNY   70  46  43 W5        29.97S
NEW BERN       MOSUNNY   72  48  42 W3        29.95F
WILMINGTON     SUNNY     70  49  47 CALM      29.95F
$$

VAZ048-242200-
ELSEWHERE

CITY           SKY/WX    TMP DP  RH WIND       PRES   REMARKS
HARRISBURG PA  PTSUNNY   64  39  39 W13       29.86S
BALTIMORE      PTSUNNY   67  36  31 NW7       29.87S
ANNAPOLIS      SUNNY     66  36  32 W8        29.87S
ANDREWS AFB    MOSUNNY   66  36  32 NW14G21   29.89S
WILMINGTON DE  PTSUNNY   68  44  42 W15       29.84R
PHILADELPHIA   PTSUNNY   68  44  42 NW14      29.81S
WILDWOOD NJ*   PTSUNNY   64  46  52 W12       29.83F
ATLANTIC CITY  MOSUNNY   65  46  50 W13       29.80R
HENDERSON NC   MOSUNNY   66  45  46 NW3       29.96S
GREENSBORO     PTSUNNY   68  39  34 N3        29.97F
ROCKY MOUNT    PTSUNNY   70  45  40 W5        29.95F
FAYETTEVILLE   PTSUNNY   71  45  39 NW6       29.96S
CHARLOTTE      CLOUDY    66  40  38 W5        30.00F
$$

VAZ100-242200-
MARINE

STATION/POSITION TIME  TEMP    WIND        PRES    WAVE   SWELL
                       AIR SEA DIR/SP/G            HT/PER HT/PER
                 (UTC) (F)     (DEG/KT/KT) (MB)    (FT/S) (FT/S)
44066 TX TWR #4  2100   59 66  320/ 19/ 23 1007.4S   6/ 6   2/10
CAPE MAY NJ      2100   63 62  300/ 13/ 16 1009.5S
LEWES DE         2100   63 58  320/ 13/ 15 1009.9S
15NM E FENWICK I 2100   64 64  310/ 14/ 16 1009.9S   4/ 7   3/ 7
OCEAN-CITY-INLET 2100   66 62  320/ 10/ 14 1010.2R
WACHAPREAGUE VA  2100   65 61  280/  2/  8 1012.0S
THOMAS POINT MD  2100   66 62  300/ 13/ 14 1012.4F
GOOSES REEF MD   2100   66     310/ 12/ 16 1012.1S
COVE POINT MD    2100   65     310/ 10/ 12 1011.7R
SOLOMONS ISLAND  2100      64                N/A
BISHOPS HEAD MD  2100   62 59  280/  9/ 11 1011.5R
PINEY POINT MD   2100          310/ 15/ 16   N/A
POTOMAC MD       2100   65     300/ 17/ 19 1011.5S
CAMBRIDGE MD     2100   65 60  290/  8/ 10 1011.2S
LEWISETTA VA     2100   65 60  310/ 10/ 12 1012.1S
RAPPAHANNOCK LGT 2100          290/ 14/ 16 1012.7S
STINGRAY PT      2100   66     300/ 10/ 12 1013.0S
YORK RVR RNG VA  2100   66     320/ 13/ 14 1012.2R
YORKTOWN VA      2100   66 64  320/ 11/ 12 1012.4S
JAMESTOWN VA     2100   65     300/ 10/ 12   N/A
DOMINION TERM VA 2100   66     330/ 10/ 13 1012.8S
KIPTOPEKE VA     2100      66  310/ 12/ 13   N/A
CHES BAY BRIDGE  2100   65 65  260/ 13/ 15 1012.0S
CHESAPEAKE LGHT  2000   64     310/ 16/ 17 1013.3R
WILLOUBY STN VA  2100   66     310/ 13/ 14 1011.5R
S CRANEY ISL VA  2100          290/  7/ 11 1012.6R
CAPE HENRY BUOY  2100      67                N/A     4/ 7
1ST LANDING BUOY 2100   66     310/ 10/ 12 1012.3S
CAPE CHARLES BUO 2100      66                N/A     3/10   2/10
64NM E OF VA BCH 2100   62 67  300/ 16/ 17 1011.7F   5/ 8   3/ 8
DUCK PIER NC     2100   65 66  320/  6/  6 1012.0F
44100 DUCK FRF   2100      67                N/A     4/ 7   2/11
44056 DUCK FRF   2100                        N/A     3/ 7
OREGON INLET NC  2100   65 63  290/  7/ 10 1013.0S
HATTERAS NC      2100   64 64  320/  8/ 10 1013.7S
DIAMOND SHLS NC  2100   64     310/ 12/ 16 1013.3F   3/ 7   3/ 7
CAPE LOOKOUT NC  2000   66     260/  4/  5 1014.2F
$$



USA.gov is the U.S. government's official web portal to all federal, state and local government web resources and services.